Temperature
19 18 19 19 19 19 19 19 19 19 19 19 19 19 19 19 18 18 19 19 18 18 18 18 18 18 18 18 18 18 18 18 18 18 18 17 17 17 17 17 17 17 17
19 18 19 19 19 19 19 19 19 19 19 19 19 19 19 19 18 18 18 18 18 18 18 18 18 18 18 18 18 18 18 18 18 18 17 17 17 17 17 17 17 17 17
19 18 19 19 19 19 19 19 19 19 19 19 19 19 19 18 18 18 18 18 18 18 18 18 18 18 18 18 18 18 18 18 18 17 17 17 17 17 17 17 17 17 17
19 19 18 19 19 19 19 19 19 19 19 19 19 18 18 18 18 18 18 18 18 18 18 18 18 18 18 18 18 18 18 18 17 17 17 17 16 17 17 17 17 17 17
19 18 19 19 19 19 19 19 19 19 19 19 19 18 18 18 18 18 18 18 18 18 18 18 18 18 18 18 18 18 18 18 17 17 17 17 16 17 17 17 17 17 17
19 19 19 19 19 19 19 19 19 19 19 19 18 18 18 18 18 18 18 18 18 18 18 18 18 18 18 18 18 18 18 17 17 17 16 16 16 17 17 17 17 17 17
20 19 19 19 19 19 19 19 19 19 19 18 18 18 18 18 18 18 18 18 18 18 18 18 18 18 18 18 18 18 18 17 17 17 16 16 17 17 17 17 17 17 17
20 19 18 19 19 19 19 19 19 19 19 18 18 18 18 18 18 18 18 18 18 18 18 18 18 18 18 18 18 18 18 17 17 17 17 16 17 17 17 17 17 17 17
20 19 18 18 19 19 19 19 19 19 18 18 18 18 18 18 18 18 18 18 18 18 18 18 18 18 18 18 18 18 18 17 18 17 17 16 17 17 17 17 17 17 17
20 19 19 19 18 18 18 19 19 19 18 18 18 18 18 18 18 18 18 18 18 18 18 18 18 18 18 18 18 18 18 17 18 17 17 17 17 17 17 17 17 17 17
19 19 19 19 18 18 18 18 18 18 18 18 18 18 18 17 17 17 17 18 18 18 18 18 18 18 18 18 18 18 17 17 18 17 17 17 17 17 17 17 17 17 17
19 19 19 19 18 18 18 18 18 18 18 18 17 17 18 18 17 17 18 18 18 18 18 18 18 18 17 17 17 17 17 17 18 17 17 17 17 17 17 17 17 17 17
19 19 19 19 18 18 18 18 18 18 18 18 18 18 18 18 17 17 17 17 17 17 17 17 17 17 17 17 17 17 17 18 18 18 17 17 17 17 17 17 17 17 17
19 19 19 19 18 18 18 18 18 18 18 18 18 18 18 18 17 17 17 17 17 17 17 17 17 17 17 17 17 17 17 18 18 17 17 18 17 17 17 17 17 17 17
19 19 19 19 19 19 19 18 18 18 18 18 18 18 17 17 17 17 17 17 17 17 17 17 17 17 17 17 17 17 17 17 17 17 17 18 17 17 17 17 17 17 17
20 20 19 19 19 19 19 19 18 18 18 18 18 18 18 18 17 17 17 17 17 17 17 17 17 17 17 17 17 17 17 17 17 17 17 17 17 17 17 17 17 17 17
20 20 20 20 20 19 19 19 18 18 18 18 18 18 18 18 17 17 17 17 17 17 17 17 17 17 17 17 17 17 17 17 17 17 17 17 17 17 17 17 17 17 17
20 20 20 20 20 20 19 19 18 18 18 18 18 18 18 18 18 18 17 17 17 17 17 17 17 17 17 17 17 17 17 17 17 17 17 17 17 17 17 17 17 17 17
20 21 21 20 20 20 19 19 18 18 18 18 18 18 18 18 18 18 18 18 17 17 17 17 17 17 17 17 18 17 17 17 17 17 17 17 17 17 17 17 17 17 17
21 21 21 20 20 20 19 19 19 18 18 18 18 18 18 18 18 18 18 18 17 17 17 17 17 17 17 17 18 18 18 18 18 18 17 17 17 17 17 17 17 17 17
21 21 21 20 20 20 19 19 19 19 18 18 18 18 18 18 18 18 18 18 18 17 17 17 17 17 17 17 18 18 18 18 18 18 18 18 18 17 17 17 17 17 17
21 21 21 21 20 20 20 20 19 19 18 18 18 18 18 18 18 18 18 18 18 17 17 17 17 17 18 17 18 18 19 19 18 18 18 18 18 18 18 17 17 17 17
21 21 21 21 21 20 20 19 19 19 19 18 18 18 18 18 18 18 18 18 17 17 17 17 17 17 17 18 18 18 19 20 20 19 18 18 18 18 18 18 17 17 17
22 21 21 21 20 20 20 19 19 18 18 19 19 18 18 18 18 18 18 18 18 17 17 17 17 17 17 18 18 17 18 18 19 19 19 19 18 18 18 18 18 17 17
22 21 21 21 20 20 20 19 19 19 18 18 18 18 18 18 18 18 18 18 18 18 17 17 17 17 17 17 18 18 17 17 18 18 19 19 18 18 18 18 18 18 17
21 21 21 20 20 20 20 19 19 19 19 18 18 18 18 18 18 18 18 18 18 18 17 17 17 17 17 17 17 17 17 18 18 18 18 18 18 18 18 18 18 17 17
Wind_Speed
11 14 15 14 14 15 15 16 16 16 16 16 16 16 16 16 16 16 16 16 16 16 16 16 16 16 16 16 16 17 17 17 17 17 17 17 17 17 16 16 16 18 18
15 16 15 14 14 15 15 15 16 16 16 16 16 16 16 15 15 15 15 15 15 16 16 16 16 16 16 16 17 16 17 17 17 17 17 17 16 15 14 13 14 17 17
16 17 16 14 15 15 15 15 15 16 16 15 15 15 15 15 15 15 15 15 15 15 15 16 16 16 16 16 16 16 16 16 15 14 13 14 15 14 15 16 17 17 16
16 17 16 16 15 15 15 15 15 15 15 15 14 14 14 14 14 14 14 14 15 15 15 15 15 16 16 16 16 15 15 15 12 9 10 13 14 14 15 16 16 16 16
15 16 17 15 15 14 14 14 14 14 14 14 14 13 13 13 14 14 14 14 14 14 14 15 15 15 15 15 15 15 14 13 8 7 11 12 13 14 14 15 15 15 15
15 16 17 15 15 14 14 13 13 13 13 13 13 13 13 13 13 13 13 13 13 13 14 14 14 14 14 14 14 14 12 10 8 10 10 11 13 13 13 14 14 14 14
15 15 17 14 14 13 13 13 12 12 12 12 12 12 12 12 12 12 13 12 12 12 13 13 13 13 13 13 12 12 10 4 6 10 9 11 13 13 13 13 13 13 13
14 15 17 14 13 13 12 12 12 11 11 11 11 11 11 11 11 11 12 12 12 12 12 12 12 12 12 11 11 10 7 4 8 9 9 11 13 12 12 12 12 12 12
13 13 15 15 14 12 11 11 11 11 10 10 10 10 10 11 11 10 10 11 11 11 11 11 11 10 10 10 10 9 5 3 4 7 9 10 12 10 10 10 11 11 11
12 12 12 13 13 13 12 11 10 10 10 10 10 9 10 11 10 10 10 10 10 10 10 10 10 10 9 9 9 8 5 5 5 8 7 11 11 9 9 10 10 10 10
11 10 11 11 11 10 11 12 11 10 10 10 10 9 9 8 9 9 10 10 9 9 9 9 9 9 9 9 8 7 7 3 5 5 7 12 10 9 9 9 9 9 9
13 12 10 10 10 9 8 10 9 9 10 7 7 8 6 5 5 7 12 9 8 8 8 8 8 8 8 8 10 9 4 3 4 5 8 11 9 8 8 8 8 8 8
13 12 11 10 9 9 7 7 6 6 7 7 7 6 5 6 6 6 8 9 9 9 8 8 8 5 4 3 3 4 2 2 3 4 9 11 8 8 8 8 8 8 8
13 12 11 10 9 8 7 6 6 6 6 6 7 6 6 4 4 5 4 5 6 5 4 5 4 3 2 3 2 2 2 2 2 2 8 10 8 8 8 8 8 8 8
13 12 11 10 10 8 7 6 6 5 6 6 6 6 5 5 4 4 3 3 4 4 5 4 3 3 3 4 3 3 3 1 2 2 5 10 9 9 9 9 9 9 9
13 12 11 11 10 9 8 6 5 6 5 5 6 6 6 4 4 4 5 4 4 4 4 4 4 4 4 3 3 3 4 3 3 3 3 9 12 11 11 10 10 10 10
12 12 11 11 11 10 9 9 7 6 6 6 6 7 7 6 5 5 4 5 4 4 4 5 5 5 4 4 4 4 4 4 4 4 5 4 8 13 13 12 12 12 12
11 11 11 10 11 11 9 8 7 7 6 6 7 7 8 8 7 6 5 5 5 6 5 4 5 5 4 5 4 4 4 4 6 6 7 7 6 7 13 16 14 14 14
11 11 11 11 11 11 10 8 8 7 7 7 7 7 8 9 9 8 6 5 6 5 5 5 5 5 5 5 5 5 6 5 5 7 7 8 8 7 7 14 16 16 15
11 11 11 11 11 10 9 8 7 8 8 8 8 8 9 9 10 9 7 7 7 6 5 5 4 5 5 6 6 5 5 6 7 6 7 8 8 10 10 9 11 15 18
11 11 11 11 11 10 8 9 8 9 8 8 9 10 11 11 10 9 8 7 7 7 7 7 6 7 7 6 6 6 6 8 8 7 7 7 8 9 9 9 10 9 11
13 12 12 12 12 11 9 8 7 7 8 8 8 9 12 12 11 10 9 8 8 7 8 8 8 7 6 6 6 5 5 6 7 8 7 8 7 7 9 10 10 9 10
13 14 12 13 12 12 10 8 6 6 6 7 8 9 11 13 13 11 10 10 8 9 8 9 9 9 7 7 7 6 5 4 3 5 6 6 6 6 7 7 10 10 11
13 12 12 12 11 11 11 10 10 9 9 9 8 8 9 11 12 12 12 11 10 9 9 10 10 9 9 8 6 7 8 6 5 3 5 6 6 6 7 6 7 8 10
11 11 11 11 11 11 11 11 11 11 9 8 7 8 8 9 11 12 11 11 10 9 10 10 9 10 9 9 8 6 8 7 9 7 6 4 4 5 5 6 5 6 7
10 10 9 10 10 11 11 11 11 11 10 9 8 7 7 7 8 10 10 9 10 9 10 10 10 11 10 10 8 7 7 6 7 8 8 7 6 5 5 4 5 5 6
Wind_Direction
133 125 123 123 119 116 114 112 112 110 109 109 107 105 104 102 100 99 99 99 100 100 99 100 100 102 102 103 104 105 106 106 107 106 104 104 106 108 111 117 119 108 111
134 129 126 124 122 120 118 116 115 113 112 110 108 107 105 104 103 102 101 102 102 102 101 101 100 101 102 103 104 105 107 108 109 110 112 108 105 106 106 104 99 110 115
134 131 134 126 123 121 119 118 117 116 113 111 110 108 106 105 105 104 104 104 104 104 104 103 102 102 103 103 105 106 107 110 113 121 131 116 109 105 105 104 105 114 115
136 136 133 128 126 124 122 120 118 117 115 113 110 108 107 106 105 105 106 105 105 106 106 105 105 104 105 105 105 107 109 111 121 148 121 110 112 109 110 111 112 114 115
134 131 129 134 130 128 126 123 120 119 116 114 112 110 108 106 106 105 106 105 106 106 107 107 107 107 107 106 106 107 110 115 134 130 102 105 107 111 113 114 114 115 115
140 139 133 138 134 133 130 127 125 122 118 116 115 112 110 109 107 106 106 106 106 108 109 109 109 109 109 108 108 110 115 135 159 106 107 112 111 115 115 116 117 116 116
144 138 137 141 137 136 135 132 129 126 122 118 116 114 112 111 109 108 108 108 108 110 112 112 110 110 111 111 112 113 119 159 116 108 110 104 108 115 116 117 119 119 120
145 141 135 141 141 140 138 135 132 130 127 124 121 117 115 113 111 111 111 111 111 112 115 115 113 112 113 113 115 118 131 204 119 111 107 105 111 120 120 120 120 121 121
148 143 147 150 148 146 141 139 137 135 133 129 126 122 119 117 115 115 114 114 114 115 116 118 117 115 117 118 119 121 126 278 119 115 115 112 120 125 126 129 128 127 126
154 152 153 155 152 156 152 146 143 140 136 132 130 129 128 127 124 127 130 119 120 120 121 121 119 118 122 126 126 129 153 223 120 120 115 116 128 133 132 133 135 134 133
161 160 163 158 159 162 155 148 156 151 146 150 148 146 163 153 141 149 115 124 127 126 125 124 123 127 136 138 137 154 193 158 112 104 103 116 140 145 144 143 142 142 141
171 172 170 169 163 167 161 157 168 167 159 172 151 160 162 138 135 126 120 133 135 135 136 131 138 162 186 152 153 185 178 139 132 129 117 131 152 158 154 155 153 154 152
176 177 174 173 171 177 168 171 171 167 161 169 161 165 154 159 157 151 151 154 157 166 164 153 180 182 162 122 149 167 136 148 139 134 130 149 166 172 170 171 171 169 169
181 182 180 176 180 184 184 175 177 178 176 172 164 184 169 173 169 157 167 163 169 173 169 179 181 168 168 167 186 185 180 193 142 117 133 159 178 185 186 185 185 186 185
186 187 185 184 184 186 190 200 188 188 184 176 174 182 192 186 181 170 170 186 189 174 179 197 200 186 201 201 209 199 215 207 185 203 149 167 188 197 199 198 198 200 200
192 191 187 190 190 192 194 200 198 198 199 196 191 187 200 203 190 188 188 195 200 201 199 200 203 203 218 218 219 213 230 219 198 225 202 174 191 203 208 208 206 208 209
194 193 192 194 194 199 203 204 203 205 200 206 199 197 206 211 201 209 207 203 207 200 191 210 215 218 218 217 217 224 234 242 226 222 230 215 194 200 208 212 213 214 215
195 193 195 198 196 201 207 209 210 209 207 214 210 203 208 213 215 222 224 218 207 215 211 209 221 221 224 234 230 238 233 226 233 227 224 222 225 211 201 206 214 218 220
196 195 195 201 201 203 204 207 216 210 215 218 215 214 209 213 217 224 231 231 225 224 224 233 212 231 231 237 237 229 238 237 233 232 231 232 226 229 220 193 207 218 222
195 195 197 200 202 203 203 204 214 216 217 218 219 222 222 219 220 227 227 225 231 229 229 238 238 237 247 246 254 246 240 241 241 235 237 236 229 226 226 217 209 215 217
194 196 199 203 199 200 203 206 208 214 218 219 220 220 223 228 224 228 243 226 231 232 233 231 234 232 238 242 249 249 239 237 240 239 236 240 232 230 231 226 228 230 214
197 199 200 203 202 203 207 212 217 222 221 224 228 223 225 227 227 226 230 233 230 232 232 233 232 241 239 228 243 253 251 232 222 230 226 228 235 231 229 226 225 228 241
201 203 203 202 203 207 208 212 217 221 227 225 224 224 224 224 224 230 228 231 231 233 232 231 230 235 241 236 236 248 261 259 248 210 218 229 231 235 238 234 227 226 231
203 203 205 202 203 206 208 215 216 225 231 232 229 229 228 227 227 226 230 229 230 234 233 233 230 234 237 242 232 235 252 279 274 255 221 214 219 230 241 245 241 229 229
202 200 200 202 203 206 211 216 220 230 236 241 239 236 234 232 230 228 226 227 227 235 236 239 238 236 234 241 243 237 239 244 248 260 262 252 231 228 229 236 247 247 236
194 194 193 198 201 205 210 216 223 232 238 243 241 239 235 233 230 226 226 228 230 233 234 236 239 235 238 244 246 244 242 244 243 246 254 258 260 253 240 242 245 244 240
Height
1539 1539 1539 1541 1542 1543 1544 1545 1546 1546 1547 1548 1549 1549 1550 1551 1552 1552 1553 1553 1554 1555 1556 1557 1558 1558 1559 1560 1560 1561 1562 1562 1563 1564 1565 1566 1567 1568 1569 1570 1572 1572 1572
1540 1540 1541 1543 1544 1545 1547 1548 1548 1549 1550 1551 1552 1552 1553 1554 1554 1555 1556 1556 1557 1558 1559 1560 1560 1561 1561 1562 1563 1563 1564 1565 1566 1567 1568 1569 1570 1571 1572 1573 1574 1574 1575
1541 1542 1543 1545 1546 1548 1549 1550 1551 1552 1553 1554 1554 1555 1556 1556 1557 1558 1559 1559 1560 1561 1562 1562 1563 1563 1564 1565 1565 1566 1567 1568 1569 1570 1572 1573 1572 1573 1574 1575 1576 1577 1578
1543 1545 1546 1547 1548 1550 1551 1552 1553 1554 1555 1556 1557 1558 1558 1559 1560 1561 1561 1562 1563 1563 1564 1565 1565 1566 1566 1567 1568 1569 1569 1570 1572 1573 1576 1576 1575 1575 1576 1577 1578 1579 1580
1545 1547 1547 1549 1551 1552 1553 1555 1556 1557 1558 1559 1560 1560 1561 1562 1562 1563 1564 1565 1565 1566 1566 1567 1568 1568 1569 1570 1570 1571 1572 1573 1574 1577 1578 1578 1577 1578 1579 1579 1580 1581 1582
1547 1549 1549 1551 1553 1554 1556 1557 1558 1559 1560 1561 1562 1563 1563 1564 1565 1565 1566 1567 1568 1568 1569 1569 1570 1571 1571 1572 1573 1574 1574 1576 1578 1580 1579 1580 1580 1580 1581 1582 1582 1583 1584
1549 1551 1551 1553 1555 1556 1558 1559 1560 1561 1562 1563 1564 1565 1566 1566 1567 1568 1568 1569 1570 1570 1571 1572 1572 1573 1574 1575 1575 1576 1577 1578 1581 1582 1582 1582 1581 1581 1583 1583 1584 1585 1586
1552 1554 1553 1554 1556 1558 1559 1561 1562 1563 1564 1565 1566 1567 1568 1568 1569 1570 1570 1571 1572 1573 1573 1574 1575 1575 1576 1577 1577 1578 1579 1580 1583 1584 1584 1583 1583 1583 1584 1585 1586 1587 1588
1554 1555 1556 1557 1558 1559 1561 1562 1563 1565 1566 1567 1568 1569 1569 1570 1571 1572 1572 1573 1574 1575 1575 1576 1577 1578 1578 1579 1580 1580 1581 1581 1586 1585 1586 1585 1584 1585 1586 1586 1587 1588 1589
1555 1557 1558 1560 1561 1562 1563 1563 1565 1566 1567 1568 1569 1570 1571 1572 1573 1573 1574 1575 1576 1576 1577 1578 1579 1580 1580 1581 1582 1582 1582 1584 1587 1587 1587 1586 1585 1586 1587 1588 1589 1589 1590
1555 1557 1559 1561 1562 1564 1566 1565 1566 1567 1568 1570 1571 1571 1573 1575 1575 1576 1576 1576 1577 1578 1579 1580 1581 1582 1582 1583 1583 1583 1584 1587 1588 1589 1588 1586 1587 1587 1588 1589 1590 1590 1591
1554 1557 1559 1562 1563 1565 1567 1567 1569 1570 1570 1571 1572 1573 1574 1575 1577 1577 1577 1577 1578 1579 1581 1581 1582 1583 1584 1586 1585 1585 1588 1588 1589 1589 1588 1587 1587 1588 1589 1589 1590 1591 1592
1554 1557 1559 1561 1562 1565 1567 1568 1570 1571 1571 1572 1573 1573 1575 1576 1577 1578 1579 1579 1580 1581 1583 1583 1584 1586 1587 1587 1587 1588 1589 1590 1590 1590 1588 1587 1588 1588 1589 1590 1590 1591 1592
1554 1556 1559 1561 1562 1564 1566 1568 1569 1571 1572 1573 1573 1574 1576 1577 1578 1579 1579 1581 1582 1583 1583 1585 1585 1586 1586 1587 1588 1588 1589 1589 1590 1590 1588 1588 1588 1588 1589 1590 1590 1591 1592
1553 1556 1558 1559 1561 1563 1564 1567 1569 1570 1572 1573 1573 1574 1575 1577 1578 1579 1579 1580 1582 1583 1584 1584 1585 1585 1586 1587 1588 1588 1588 1589 1589 1590 1589 1588 1588 1588 1589 1589 1590 1590 1591
1552 1555 1557 1558 1560 1562 1564 1565 1567 1570 1570 1573 1573 1574 1574 1576 1577 1578 1579 1580 1581 1583 1584 1584 1585 1585 1586 1587 1587 1588 1588 1589 1588 1588 1589 1588 1587 1588 1588 1588 1589 1589 1590
1552 1554 1555 1557 1559 1561 1563 1565 1567 1569 1570 1571 1572 1572 1573 1575 1576 1577 1579 1579 1581 1582 1582 1583 1584 1585 1585 1586 1586 1587 1587 1587 1588 1587 1588 1588 1587 1587 1587 1587 1588 1588 1589
1550 1552 1554 1556 1558 1559 1561 1563 1566 1568 1569 1570 1571 1571 1572 1573 1575 1576 1578 1579 1579 1580 1581 1582 1583 1584 1585 1585 1585 1586 1586 1586 1586 1586 1586 1586 1587 1587 1586 1586 1586 1587 1587
1549 1551 1553 1555 1556 1558 1560 1561 1563 1564 1566 1567 1568 1569 1570 1572 1573 1574 1576 1577 1578 1579 1580 1581 1582 1582 1583 1583 1584 1584 1584 1584 1584 1584 1584 1585 1585 1585 1585 1584 1584 1585 1585
1547 1549 1551 1553 1555 1556 1558 1559 1561 1562 1564 1565 1566 1567 1568 1570 1571 1572 1574 1574 1576 1577 1577 1578 1579 1579 1581 1581 1582 1583 1582 1582 1582 1582 1582 1583 1582 1583 1583 1583 1583 1583 1583
1544 1546 1548 1550 1552 1554 1556 1557 1559 1560 1561 1562 1564 1564 1565 1567 1568 1569 1571 1572 1573 1574 1575 1576 1577 1578 1579 1579 1580 1580 1580 1579 1579 1579 1579 1580 1580 1581 1581 1581 1581 1581 1581
1541 1543 1545 1547 1550 1551 1553 1555 1556 1558 1559 1560 1561 1561 1562 1563 1565 1566 1567 1568 1570 1571 1571 1573 1574 1576 1576 1577 1578 1578 1578 1578 1576 1576 1576 1576 1577 1578 1578 1578 1578 1578 1578
1537 1539 1542 1544 1546 1548 1550 1552 1553 1554 1555 1556 1557 1557 1559 1560 1561 1562 1564 1565 1566 1567 1568 1569 1571 1572 1574 1574 1575 1576 1575 1574 1574 1574 1574 1574 1574 1574 1575 1575 1575 1575 1575
1534 1537 1539 1541 1543 1545 1547 1549 1550 1550 1551 1552 1553 1554 1555 1555 1557 1558 1560 1561 1562 1564 1565 1566 1568 1569 1570 1571 1571 1572 1573 1573 1573 1572 1572 1571 1571 1571 1571 1572 1572 1572 1571
1532 1534 1536 1538 1540 1541 1543 1545 1546 1547 1548 1549 1549 1550 1550 1551 1553 1554 1555 1557 1558 1559 1561 1563 1564 1565 1566 1567 1568 1569 1569 1569 1570 1570 1569 1569 1569 1569 1569 1568 1568 1568 1568
1529 1531 1533 1534 1536 1538 1539 1541 1542 1543 1544 1545 1545 1546 1546 1547 1548 1549 1550 1552 1553 1555 1556 1558 1560 1561 1562 1563 1564 1564 1565 1566 1566 1566 1565 1565 1566 1566 1566 1565 1565 1565 1565